Winnsboro, SC

2:58 PM EDT on August 21, 2017 (GMT -0400)
Fairfield County

Weather History for KFDW - May, 2013

Change the Weather History Date:

Monday, May 20, 2013

  Actual Average Record
Temperature  
Mean Temperature 78 °F -  
Max Temperature 84 °F 83 °F 89 °F (2015)
Min Temperature 71 °F 58 °F 53 °F (2014)
Cooling Degree Days 12    
Growing Degree Days 28 (Base 50)    
Moisture  
Dew Point 71 °F    
Average Humidity 80    
Maximum Humidity 100    
Minimum Humidity 58    
Precipitation  
Precipitation 0.00 in - - ()
Sea Level Pressure  
Sea Level Pressure 30.09 in    
Wind  
Wind Speed 3 mph (South)    
Max Wind Speed 8 mph    
Max Gust Speed -    
Visibility 8 miles    
Events Fog , Rain    
Averages and records for this station are not official NWS values.
T = Trace of Precipitation, MM = Missing Value Source: NWS Daily Summary

Daily Weather History Graph

Daily Weather History Graph

Search for Another Location

Airport or City:

Trip Planner

Search our weather history database for the weather conditions in past years. The results will help you decide how hot, cold, wet, or windy it might be!

Date:

Astronomy

May. 20, 2013 Rise Set
Actual Time 6:18 AM EDT 8:23 PM EDT
Civil Twilight 5:50 AM EDT 8:51 PM EDT
Nautical Twilight 5:16 AM EDT 9:26 PM EDT
Astronomical Twilight 4:39 AM EDT 10:03 PM EDT
Moon 3:41 PM EDT (5/20) 2:59 AM EDT (5/20)
Length of Visible Light 15h 01m
Length of Day
14h 04m
Waxing Gibbous, 75% of the Moon is Illuminated
May 20
Waxing Gibbous
May 25
Full
May 31
Last Quarter
Jun 8
New
Jun 16
First Quarter

Hourly Weather History & Observations

Time (EDT) Temp. Heat Index Dew Point Humidity Pressure Visibility Wind Dir Wind Speed Gust Speed Precip Events Conditions
12:15 AM - - - N/A% 30.09 in 5.0 mi SE 5.8 mph - N/A   Haze
12:35 AM - - - N/A% 30.09 in 5.0 mi SSE 6.9 mph - N/A   Haze
12:55 AM - - - N/A% 30.09 in 5.0 mi SSE 4.6 mph - N/A   Haze
1:15 AM - - - N/A% 30.09 in 7.0 mi SSE 4.6 mph - N/A   Mostly Cloudy
1:35 AM - - - N/A% 30.09 in 7.0 mi SSE 4.6 mph - N/A   Overcast
1:55 AM - - - N/A% 30.10 in 7.0 mi South 5.8 mph - N/A   Overcast
2:15 AM - - - N/A% 30.09 in 7.0 mi South 8.1 mph - N/A   Overcast
2:35 AM - - - N/A% 30.09 in 7.0 mi South 5.8 mph - N/A   Overcast
2:55 AM - - - N/A% 30.08 in 5.0 mi SSW 5.8 mph - N/A   Haze
3:15 AM - - - N/A% 30.08 in 5.0 mi South 6.9 mph - N/A   Haze
3:35 AM - - - N/A% 30.08 in 5.0 mi South 4.6 mph - N/A   Haze
3:55 AM - - - N/A% 30.07 in 5.0 mi SSW 3.5 mph - N/A   Haze
4:15 AM - - - N/A% 30.07 in 4.0 mi Calm Calm - N/A   Haze
4:35 AM - - - N/A% 30.07 in 3.0 mi Calm Calm - N/A   Overcast
5:15 AM - - - N/A% 30.08 in 2.0 mi Calm Calm - N/A   Overcast
5:35 AM - - - N/A% 30.08 in 3.0 mi Calm Calm - N/A   Overcast
6:15 AM - - - N/A% 30.08 in 5.0 mi Calm Calm - N/A   Haze
6:35 AM - - - N/A% 30.08 in 4.0 mi Calm Calm - N/A   Haze
6:55 AM - - - N/A% 30.09 in 4.0 mi Calm Calm - N/A   Haze
7:15 AM - - - N/A% 30.09 in 5.0 mi Calm Calm - N/A   Haze
7:35 AM - - - N/A% 30.09 in 3.0 mi Calm Calm - N/A   Overcast
7:55 AM - - - N/A% 30.10 in 0.2 mi SE 3.5 mph - N/A Fog Fog
8:15 AM - - - N/A% 30.10 in 0.2 mi SE 3.5 mph - N/A Fog Fog
8:35 AM - - - N/A% 30.11 in 0.8 mi SE 3.5 mph - N/A   Overcast
8:55 AM - - - N/A% 30.12 in 3.0 mi SE 3.5 mph - N/A   Overcast
9:15 AM - - - N/A% 30.12 in 4.0 mi Calm Calm - N/A   Haze
9:35 AM - - - N/A% 30.13 in 5.0 mi Calm Calm - N/A   Haze
9:55 AM - - - N/A% 30.14 in 7.0 mi South 3.5 mph - N/A   Mostly Cloudy
10:15 AM 71.6 °F - 71.6 °F 100% 30.13 in 10.0 mi SSW 3.5 mph - N/A   Mostly Cloudy
10:35 AM 73.4 °F - 71.6 °F 94% 30.13 in 10.0 mi South 5.8 mph - N/A   Overcast
10:55 AM 73.4 °F - 71.6 °F 94% 30.13 in 10.0 mi South 3.5 mph - N/A   Overcast
11:15 AM 73.4 °F - 71.6 °F 94% 30.13 in 10.0 mi Calm Calm - N/A   Overcast
11:35 AM 73.4 °F - 71.6 °F 94% 30.13 in 10.0 mi Calm Calm - N/A   Overcast
11:55 AM 75.2 °F - 71.6 °F 89% 30.13 in 10.0 mi Calm Calm - N/A   Overcast
12:15 PM 75.2 °F - 71.6 °F 89% 30.13 in 10.0 mi ESE 3.5 mph - N/A   Overcast
12:35 PM 75.2 °F - 71.6 °F 89% 30.13 in 10.0 mi SE 4.6 mph - N/A   Overcast
12:55 PM 77.0 °F - 69.8 °F 78% 30.13 in 10.0 mi South 3.5 mph - N/A   Overcast
1:15 PM 77.0 °F - 71.6 °F 83% 30.12 in 10.0 mi Calm Calm - N/A   Overcast
1:35 PM 77.0 °F - 71.6 °F 83% 30.12 in 10.0 mi SW 3.5 mph - N/A Rain Light Rain
1:55 PM 77.0 °F - 71.6 °F 83% 30.13 in 10.0 mi WNW 3.5 mph - N/A   Mostly Cloudy
2:15 PM 77.0 °F - 71.6 °F 83% 30.13 in 10.0 mi NW 4.6 mph - N/A   Overcast
2:35 PM 77.0 °F - 71.6 °F 83% 30.11 in 10.0 mi Calm Calm - N/A   Mostly Cloudy
2:55 PM 78.8 °F - 69.8 °F 74% 30.09 in 10.0 mi Calm Calm - N/A   Scattered Clouds
3:35 PM 80.6 °F 83.9 °F 69.8 °F 70% 30.07 in 10.0 mi Calm Calm - N/A   Clear
3:55 PM 82.4 °F 86.3 °F 69.8 °F 66% 30.07 in 10.0 mi WSW 4.6 mph - N/A   Scattered Clouds
4:15 PM 82.4 °F 86.3 °F 69.8 °F 66% 30.07 in 10.0 mi SSW 3.5 mph - N/A   Scattered Clouds
4:55 PM 84.2 °F 88.4 °F 69.8 °F 62% 30.06 in 10.0 mi SW 4.6 mph - N/A   Scattered Clouds
5:15 PM 82.4 °F 86.3 °F 69.8 °F 66% 30.05 in 10.0 mi South 4.6 mph - N/A   Scattered Clouds
5:55 PM 84.2 °F 88.4 °F 69.8 °F 62% 30.05 in 10.0 mi Calm Calm - N/A   Clear
6:15 PM 84.2 °F 87.3 °F 68.0 °F 58% 30.05 in 10.0 mi Calm Calm - N/A   Clear
6:35 PM 82.4 °F 85.4 °F 68.0 °F 62% 30.05 in 10.0 mi NNW 4.6 mph - N/A   Clear
6:55 PM 82.4 °F 86.3 °F 69.8 °F 66% 30.04 in 10.0 mi NNW 3.5 mph - N/A   Clear
7:15 PM 82.4 °F 85.4 °F 68.0 °F 62% 30.04 in 10.0 mi Calm Calm - N/A   Clear
7:35 PM 82.4 °F 85.4 °F 68.0 °F 62% 30.03 in 10.0 mi Calm Calm - N/A   Clear
7:55 PM 82.4 °F 85.4 °F 68.0 °F 62% 30.04 in 10.0 mi Calm Calm - N/A   Clear
8:35 PM 80.6 °F 83.9 °F 69.8 °F 70% 30.04 in 10.0 mi Calm Calm - N/A   Clear
8:55 PM 78.8 °F - 71.6 °F 78% 30.04 in 10.0 mi SSW 4.6 mph - N/A   Clear
9:15 PM 78.8 °F - 71.6 °F 78% 30.04 in 10.0 mi Calm Calm - N/A   Clear
9:35 PM 77.0 °F - 71.6 °F 83% 30.05 in 10.0 mi Calm Calm - N/A   Clear
9:55 PM 77.0 °F - 73.4 °F 89% 30.05 in 10.0 mi Calm Calm - N/A   Clear
10:15 PM 75.2 °F - 73.4 °F 94% 30.05 in 10.0 mi Calm Calm - N/A   Clear
10:35 PM 75.2 °F - 71.6 °F 89% 30.05 in 10.0 mi Calm Calm - N/A   Clear
10:55 PM 73.4 °F - 71.6 °F 94% 30.06 in 10.0 mi Calm Calm - N/A   Clear
11:15 PM 73.4 °F - 73.4 °F 100% 30.07 in 10.0 mi SSE 4.6 mph - N/A   Clear
11:35 PM 73.4 °F - 73.4 °F 100% 30.07 in 10.0 mi SSE 5.8 mph - N/A   Clear
11:55 PM 71.6 °F - 71.6 °F 100% 30.07 in 10.0 mi SSE 5.8 mph - N/A   Clear